Weather History for LIVP - November, 2011

Change the Weather History Date:

Friday, November 18, 2011

  Actual Average (WUND) Record (WUND)
Temperature  
Mean Temperature 34 °F -  
Max Temperature 37 °F 32 °F - (-1)
Min Temperature 31 °F 23 °F - (-1)
Degree Days  
Heating Degree Days 31    
Moisture  
Dew Point 11 °F    
Average Humidity 36    
Maximum Humidity 48    
Minimum Humidity 15    
Precipitation  
Precipitation 0.00 in 0.05 in - ()
Sea Level Pressure  
Sea Level Pressure 30.18 in    
Wind  
Wind Speed 2 mph ()    
Max Wind Speed 6 mph    
Max Gust Speed -    
Averages and records for this station are not official NWS values.
T = Trace of Precipitation, MM = Missing Value Source: Averaged Metar Reports

Daily Weather History Graph

Daily Weather History Graph

Search for Another Location

Airport or City:

Trip Planner

Search our weather history database for the weather conditions in past years. The results will help you decide how hot, cold, wet, or windy it might be!

Date:

Astronomy

Nov. 18, 2011 Rise Set
Actual Time 7:20 AM CET 4:41 PM CET
Civil Twilight 6:47 AM CET 5:13 PM CET
Nautical Twilight 6:10 AM CET 5:50 PM CET
Astronomical Twilight 5:35 AM CET 6:25 PM CET
Moon No Moon Rise 12:42 PM CET (11/18)
Length of Visible Light 10h 26m
Length of Day
9h 21m
Waning Gibbous, 52% of the Moon is Illuminated
Nov 18
Waning Gibbous
Nov 18
Last Quarter
Nov 25
New
Dec 2
First Quarter
Dec 10
Full

Hourly Weather History & Observations

Time (CET) Temp. Windchill Dew Point Humidity Pressure Visibility Wind Dir Wind Speed Gust Speed Precip Events Conditions
12:55 AM 32.0 °F - 8.6 °F 38% 30.21 in - South 2.3 mph - N/A   Clear
1:55 AM 32.0 °F - 8.6 °F 38% 30.18 in - Variable 1.2 mph - N/A   Clear
2:55 AM 32.0 °F - 8.6 °F 38% 30.18 in - Variable 2.3 mph - N/A   Clear
3:55 AM 32.0 °F - 1.4 °F 27% 30.18 in - Calm Calm - N/A   Clear
4:00 AM 32 °F - 2 °F 15%  in 37 mi Calm Calm - -  
4:55 AM 32.0 °F - 3.2 °F 30% 30.18 in - WNW 2.3 mph - N/A   Clear
5:55 AM 32.0 °F - 10.4 °F 41% 30.18 in - Calm Calm - N/A   Clear
7:00 AM 32 °F - 10 °F 26%  in 47 mi Calm Calm - -  
7:55 AM 32.0 °F - 8.6 °F 38% 30.18 in - Calm Calm - N/A   Clear
8:55 AM 33.8 °F - 14.0 °F 44% 30.18 in - Variable 2.3 mph - N/A   Clear
9:55 AM 35.6 °F - 14.0 °F 41% 30.18 in - Variable 2.3 mph - N/A   Clear
10:00 AM 35 °F - 14 °F 28%  in 31 mi 2.3 mph - -  
11:55 AM 35.6 °F - 14.0 °F 41% 30.21 in - SW 2.3 mph - N/A   Clear
12:55 PM 37.4 °F 32.8 °F 12.2 °F 36% 30.18 in - SW 5.8 mph - N/A   Clear
1:00 PM 37 °F - 12 °F 22%  in 37 mi SW 5.8 mph - -   Clear
2:55 PM 37.4 °F 33.8 °F 15.8 °F 41% 30.18 in - SW 4.6 mph - N/A   Clear
3:55 PM 37.4 °F 33.8 °F 15.8 °F 41% 30.18 in - SSW 4.6 mph - N/A   Clear
4:00 PM 37 °F - 16 °F 29%  in 37 mi SSW 4.6 mph - -   Clear
4:55 PM 33.8 °F 30.8 °F 14.0 °F 44% 30.18 in - SSW 3.5 mph - N/A   Clear
5:55 PM 35.6 °F - 14.0 °F 41% 30.18 in - Calm Calm - N/A   Clear
6:55 PM 33.8 °F - 14.0 °F 44% 30.15 in - Calm Calm - N/A   Clear
7:00 PM 34 °F - 13 °F 28%  in 37 mi Calm Calm - -  
7:55 PM 33.8 °F - 12.2 °F 41% 30.15 in - Calm Calm - N/A   Clear
9:55 PM 32.0 °F - 12.2 °F 44% 30.15 in - South 2.3 mph - N/A   Clear
10:00 PM 32 °F - 11 °F 28%  in 37 mi South 2.3 mph - -  
10:55 PM 32.0 °F - 14.0 °F 48% 30.15 in - SSW 2.3 mph - N/A   Clear
11:55 PM 32.0 °F 27.5 °F 14.0 °F 48% 30.15 in - SW 4.6 mph - N/A   Clear